• En España
  • Lista de países
  • Para 7 días
  • Temperatura del agua
  • Mapa Satelital
  • El tiempo en el mapa
  • Informadores
  • user-avatar
    Iniciar sesión

    Tiempo cada hora Melbourne

    Hoy, 15 Noviembre, Jueves

    Tiempo Temperatura Precipitaciones Viento Presión Humedad
    00:00 +14°C° 0.1 mm 2 mps 763 mmHg 91%
    01:00 +13°C° 0.1 mm 3 mps 763 mmHg 91%
    02:00 +12°C° 0 mm 3 mps 763 mmHg 91%
    03:00 +12°C° 0 mm 3 mps 764 mmHg 90%
    04:00 +11°C° 0 mm 3 mps 764 mmHg 90%
    05:00 +12°C° 0 mm 3 mps 764 mmHg 86%
    06:00 +12°C° 0 mm 3 mps 764 mmHg 82%
    07:00 +13°C° 0 mm 3 mps 765 mmHg 77%
    08:00 +14°C° 0 mm 4 mps 765 mmHg 68%
    09:00 +17°C° 0 mm 4 mps 765 mmHg 59%
    10:00 +18°C° 0 mm 4 mps 766 mmHg 49%
    11:00 +18°C° 0 mm 4 mps 766 mmHg 48%
    12:00 +19°C° 0 mm 5 mps 765 mmHg 46%
    13:00 +19°C° 0 mm 5 mps 765 mmHg 44%
    14:00 +19°C° 0 mm 5 mps 765 mmHg 45%
    15:00 +19°C° 0 mm 5 mps 765 mmHg 45%
    16:00 +19°C° 0 mm 5 mps 765 mmHg 46%
    17:00 +17°C° 0 mm 4 mps 765 mmHg 51%
    18:00 +15°C° 0 mm 4 mps 765 mmHg 57%
    19:00 +13°C° 0 mm 3 mps 765 mmHg 62%
    20:00 +12°C° 0 mm 3 mps 766 mmHg 66%
    21:00 +11°C° 0 mm 3 mps 766 mmHg 71%
    22:00 +10°C° 0 mm 3 mps 767 mmHg 76%
    23:00 +9°C° 0 mm 3 mps 766 mmHg 78%

    Mañana, 16 Noviembre, Viernes

    Tiempo Temperatura Precipitaciones Viento Presión Humedad
    00:00 +9°C° 0 mm 2 mps 766 mmHg 81%
    01:00 +8°C° 0 mm 2 mps 766 mmHg 84%
    02:00 +8°C° 0 mm 2 mps 765 mmHg 86%
    03:00 +8°C° 0 mm 1 mps 765 mmHg 88%
    04:00 +8°C° 0 mm 1 mps 765 mmHg 91%
    05:00 +9°C° 0 mm 1 mps 765 mmHg 83%
    06:00 +11°C° 0 mm 1 mps 765 mmHg 76%
    07:00 +13°C° 0 mm 1 mps 765 mmHg 68%
    08:00 +15°C° 0 mm 1 mps 764 mmHg 60%
    09:00 +18°C° 0 mm 1 mps 764 mmHg 52%
    10:00 +20°C° 0 mm 2 mps 764 mmHg 43%
    11:00 +20°C° 0 mm 2 mps 764 mmHg 41%
    12:00 +21°C° 0 mm 3 mps 764 mmHg 39%
    13:00 +22°C° 0 mm 4 mps 763 mmHg 36%
    14:00 +21°C° 0 mm 4 mps 763 mmHg 39%
    15:00 +20°C° 0 mm 5 mps 763 mmHg 42%
    16:00 +19°C° 0 mm 5 mps 763 mmHg 44%
    17:00 +18°C° 0 mm 4 mps 763 mmHg 50%
    18:00 +15°C° 0 mm 4 mps 764 mmHg 55%
    19:00 +13°C° 0 mm 3 mps 764 mmHg 60%
    20:00 +12°C° 0 mm 3 mps 765 mmHg 66%
    21:00 +11°C° 0 mm 3 mps 765 mmHg 72%
    22:00 +10°C° 0 mm 3 mps 766 mmHg 78%
    23:00 +9°C° 0 mm 2 mps 766 mmHg 81%

    Pasado mañana, 17 Noviembre, Sábado

    Tiempo Temperatura Precipitaciones Viento Presión Humedad
    00:00 +9°C° 0 mm 2 mps 766 mmHg 84%
    01:00 +8°C° 0 mm 2 mps 766 mmHg 86%
    02:00 +8°C° 0 mm 2 mps 766 mmHg 87%
    03:00 +8°C° 0 mm 2 mps 766 mmHg 87%
    04:00 +7°C° 0 mm 2 mps 766 mmHg 87%
    05:00 +9°C° 0 mm 2 mps 766 mmHg 81%
    06:00 +10°C° 0 mm 2 mps 766 mmHg 75%
    07:00 +12°C° 0 mm 3 mps 766 mmHg 69%
    08:00 +14°C° 0 mm 3 mps 766 mmHg 62%
    09:00 +17°C° 0 mm 4 mps 766 mmHg 54%
    10:00 +18°C° 0 mm 4 mps 766 mmHg 47%
    11:00 +19°C° 0 mm 4 mps 766 mmHg 45%
    12:00 +20°C° 0 mm 5 mps 766 mmHg 42%
    13:00 +21°C° 0 mm 5 mps 765 mmHg 40%
    14:00 +21°C° 0 mm 5 mps 765 mmHg 41%
    15:00 +21°C° 0 mm 5 mps 765 mmHg 42%
    16:00 +20°C° 0 mm 5 mps 765 mmHg 43%
    17:00 +19°C° 0 mm 5 mps 765 mmHg 49%
    18:00 +17°C° 0 mm 4 mps 765 mmHg 55%
    19:00 +15°C° 0 mm 4 mps 766 mmHg 61%
    20:00 +13°C° 0 mm 3 mps 766 mmHg 67%
    21:00 +12°C° 0 mm 3 mps 767 mmHg 73%
    22:00 +11°C° 0 mm 3 mps 767 mmHg 79%
    23:00 +10°C° 0 mm 2 mps 767 mmHg 81%

    18 Noviembre, Domingo

    Tiempo Temperatura Precipitaciones Viento Presión Humedad
    00:00 +10°C° 0 mm 2 mps 766 mmHg 83%
    01:00 +9°C° 0 mm 2 mps 766 mmHg 84%
    02:00 +9°C° 0 mm 2 mps 766 mmHg 84%
    03:00 +9°C° 0 mm 1 mps 766 mmHg 84%
    04:00 +9°C° 0 mm 1 mps 766 mmHg 84%
    05:00 +11°C° 0 mm 1 mps 766 mmHg 76%
    06:00 +13°C° 0 mm 1 mps 766 mmHg 67%
    07:00 +15°C° 0 mm 1 mps 766 mmHg 59%
    08:00 +18°C° 0 mm 2 mps 766 mmHg 54%
    09:00 +20°C° 0 mm 2 mps 766 mmHg 49%
    10:00 +24°C° 0 mm 2 mps 766 mmHg 44%
    11:00 +25°C° 0 mm 2 mps 765 mmHg 41%
    12:00 +27°C° 0 mm 2 mps 764 mmHg 37%
    13:00 +28°C° 0 mm 2 mps 764 mmHg 34%
    14:00 +28°C° 0 mm 2 mps 763 mmHg 34%
    15:00 +28°C° 0 mm 2 mps 763 mmHg 33%
    16:00 +28°C° 0 mm 3 mps 762 mmHg 33%
    17:00 +26°C° 0 mm 3 mps 763 mmHg 39%
    18:00 +24°C° 0 mm 3 mps 763 mmHg 46%
    19:00 +21°C° 0 mm 3 mps 763 mmHg 52%
    20:00 +20°C° 0 mm 3 mps 763 mmHg 56%
    21:00 +19°C° 0 mm 3 mps 763 mmHg 59%
    22:00 +17°C° 0 mm 3 mps 763 mmHg 62%
    23:00 +17°C° 0 mm 2 mps 763 mmHg 64%

    19 Noviembre, Lunes

    Tiempo Temperatura Precipitaciones Viento Presión Humedad
    00:00 +16°C° 0 mm 2 mps 763 mmHg 65%
    01:00 +16°C° 0 mm 2 mps 763 mmHg 67%
    02:00 +16°C° 0 mm 3 mps 762 mmHg 66%
    03:00 +16°C° 0 mm 3 mps 762 mmHg 66%
    04:00 +15°C° 0 mm 4 mps 762 mmHg 65%
    05:00 +17°C° 0 mm 4 mps 762 mmHg 62%
    06:00 +17°C° 0 mm 5 mps 762 mmHg 59%
    07:00 +19°C° 0 mm 5 mps 762 mmHg 57%
    08:00 +21°C° 0 mm 5 mps 762 mmHg 51%
    09:00 +23°C° 0 mm 5 mps 762 mmHg 45%
    10:00 +26°C° 0 mm 5 mps 762 mmHg 39%
    11:00 +27°C° 0 mm 5 mps 761 mmHg 36%
    12:00 +29°C° 0 mm 5 mps 760 mmHg 32%
    13:00 +30°C° 0 mm 5 mps 759 mmHg 29%
    14:00 +32°C° 0 mm 4 mps 759 mmHg 29%
    15:00 +32°C° 0 mm 4 mps 758 mmHg 29%
    16:00 +32°C° 0 mm 4 mps 757 mmHg 29%
    17:00 +29°C° 0 mm 4 mps 757 mmHg 34%
    18:00 +28°C° 0 mm 3 mps 757 mmHg 39%
    19:00 +26°C° 0 mm 3 mps 757 mmHg 45%
    20:00 +25°C° 0 mm 3 mps 757 mmHg 44%
    21:00 +24°C° 0 mm 3 mps 757 mmHg 44%
    22:00 +23°C° 0 mm 4 mps 757 mmHg 43%
    23:00 +22°C° 0 mm 4 mps 757 mmHg 42%

    20 Noviembre, Martes

    Tiempo Temperatura Precipitaciones Viento Presión Humedad
    00:00 +22°C° 0 mm 4 mps 756 mmHg 40%
    01:00 +22°C° 0 mm 4 mps 755 mmHg 39%
    02:00 +22°C° 0 mm 5 mps 755 mmHg 38%
    03:00 +22°C° 0 mm 5 mps 755 mmHg 36%
    04:00 +23°C° 0 mm 5 mps 755 mmHg 35%
    05:00 +23°C° 0 mm 5 mps 755 mmHg 37%
    06:00 +23°C° 0 mm 5 mps 755 mmHg 38%
    07:00 +23°C° 0 mm 6 mps 755 mmHg 40%
    08:00 +25°C° 0 mm 5 mps 755 mmHg 41%
    09:00 +26°C° 0 mm 5 mps 754 mmHg 42%
    10:00 +26°C° 0 mm 5 mps 754 mmHg 43%
    11:00 +27°C° 0.2 mm 5 mps 753 mmHg 45%
    12:00 +27°C° 0.2 mm 5 mps 753 mmHg 47%
    13:00 +27°C° 0.2 mm 4 mps 752 mmHg 48%
    14:00 +27°C° 0.1 mm 4 mps 751 mmHg 47%
    15:00 +28°C° 0.1 mm 4 mps 750 mmHg 46%
    16:00 +29°C° 0.1 mm 4 mps 749 mmHg 44%
    17:00 +26°C° 1.3 mm 4 mps 749 mmHg 60%
    18:00 +22°C° 1.3 mm 3 mps 749 mmHg 75%
    19:00 +20°C° 1.3 mm 3 mps 749 mmHg 91%
    20:00 +19°C° 1.2 mm 3 mps 749 mmHg 92%
    21:00 +19°C° 1.2 mm 4 mps 748 mmHg 93%
    22:00 +19°C° 1.2 mm 4 mps 748 mmHg 94%
    23:00 +18°C° 1.4 mm 4 mps 748 mmHg 94%
    Mostrar más